Time,TemperatureF,DewpointF,PressureIn,WindDirection,WindDirectionDegrees,WindSpeedMPH,WindSpeedGustMPH,Humidity,HourlyPrecipIn,Conditions,Clouds,dailyrainin,SoftwareType,DateUTC
2013-10-02 00:00:00,62.8,59.8,29.95,WSW,254,1.0,1.0,90,0.00,,,0.00,Wunderground v.1.15,2013-10-02 04:00:00,
2013-10-02 00:01:00,62.8,59.8,29.95,WSW,254,1.0,1.0,90,0.00,,,0.00,Wunderground v.1.15,2013-10-02 04:01:00,
2013-10-02 00:03:00,62.8,59.8,29.95,WSW,252,1.0,1.0,90,0.00,,,0.00,Wunderground v.1.15,2013-10-02 04:03:00,
2013-10-02 00:04:00,62.8,59.8,29.95,WSW,252,1.0,1.0,90,0.00,,,0.00,Wunderground v.1.15,2013-10-02 04:04:00,
2013-10-02 00:08:00,62.7,59.7,29.95,WSW,253,1.0,4.0,90,0.00,,,0.00,Wunderground v.1.15,2013-10-02 04:08:00,
2013-10-02 00:11:00,62.7,59.7,29.95,WSW,254,1.0,3.0,90,0.00,,,0.00,Wunderground v.1.15,2013-10-02 04:11:00,
2013-10-02 00:16:00,62.7,60.0,29.95,WSW,238,1.0,3.0,91,0.00,,,0.00,Wunderground v.1.15,2013-10-02 04:16:00,
2013-10-02 00:23:00,62.6,60.2,29.95,WSW,239,1.0,4.0,92,0.00,,,0.00,Wunderground v.1.15,2013-10-02 04:23:00,
2013-10-02 00:28:00,62.5,59.5,29.95,WSW,242,1.0,4.0,90,0.00,,,0.00,Wunderground v.1.15,2013-10-02 04:28:00,
2013-10-02 00:33:00,62.5,59.8,29.94,WSW,244,1.0,1.0,91,0.00,,,0.00,Wunderground v.1.15,2013-10-02 04:33:00,
2013-10-02 00:39:00,62.4,59.7,29.94,WSW,244,0.0,4.0,91,0.00,,,0.00,Wunderground v.1.15,2013-10-02 04:39:00,
2013-10-02 00:44:00,62.4,59.7,29.94,WSW,244,0.0,4.0,91,0.00,,,0.00,Wunderground v.1.15,2013-10-02 04:44:00,
2013-10-02 00:50:00,62.4,59.7,29.94,West,268,1.0,1.0,91,0.00,,,0.00,Wunderground v.1.15,2013-10-02 04:50:00,
2013-10-02 00:55:00,62.4,59.7,29.94,West,269,1.0,2.0,91,0.00,,,0.00,Wunderground v.1.15,2013-10-02 04:55:00,
2013-10-02 01:01:00,62.4,59.7,29.94,West,271,0.0,0.0,91,0.00,,,0.00,Wunderground v.1.15,2013-10-02 05:01:00,
2013-10-02 01:06:00,62.3,59.6,29.94,West,271,1.0,1.0,91,0.00,,,0.00,Wunderground v.1.15,2013-10-02 05:06:00,
2013-10-02 01:11:00,62.3,59.9,29.94,West,271,1.0,1.0,92,0.00,,,0.00,Wunderground v.1.15,2013-10-02 05:11:00,
2013-10-02 01:16:00,62.2,59.8,29.95,West,271,0.0,1.0,92,0.00,,,0.00,Wunderground v.1.15,2013-10-02 05:16:00,
2013-10-02 01:23:00,62.2,59.8,29.95,West,265,0.0,0.0,92,0.00,,,0.00,Wunderground v.1.15,2013-10-02 05:23:00,
2013-10-02 01:29:00,62.2,59.8,29.95,West,266,1.0,3.0,92,0.00,,,0.00,Wunderground v.1.15,2013-10-02 05:29:00,
2013-10-02 01:34:00,62.2,59.8,29.95,West,266,1.0,2.0,92,0.00,,,0.00,Wunderground v.1.15,2013-10-02 05:34:00,
2013-10-02 01:40:00,62.1,59.7,29.95,West,267,0.0,3.0,92,0.00,,,0.00,Wunderground v.1.15,2013-10-02 05:40:00,
2013-10-02 01:45:00,62.0,59.6,29.95,West,267,0.0,3.0,92,0.00,,,0.00,Wunderground v.1.15,2013-10-02 05:45:00,
2013-10-02 01:50:00,62.0,59.6,29.95,West,267,0.0,1.0,92,0.00,,,0.00,Wunderground v.1.15,2013-10-02 05:50:00,
2013-10-02 01:55:00,62.0,59.6,29.95,West,267,0.0,2.0,92,0.00,,,0.00,Wunderground v.1.15,2013-10-02 05:55:00,
2013-10-02 02:01:00,61.8,59.5,29.95,West,267,0.0,0.0,92,0.00,,,0.00,Wunderground v.1.15,2013-10-02 06:01:00,
2013-10-02 02:06:00,61.8,59.5,29.95,West,267,0.0,0.0,92,0.00,,,0.00,Wunderground v.1.15,2013-10-02 06:06:00,
2013-10-02 02:12:00,61.8,59.8,29.95,West,268,0.0,4.0,93,0.00,,,0.00,Wunderground v.1.15,2013-10-02 06:12:00,
2013-10-02 02:18:00,61.8,59.8,29.95,West,268,1.0,4.0,93,0.00,,,0.00,Wunderground v.1.15,2013-10-02 06:18:00,
2013-10-02 02:23:00,61.8,59.8,29.95,West,265,0.0,2.0,93,0.00,,,0.00,Wunderground v.1.15,2013-10-02 06:23:00,
2013-10-02 02:30:00,61.7,59.7,29.95,West,266,0.0,0.0,93,0.00,,,0.00,Wunderground v.1.15,2013-10-02 06:30:00,
2013-10-02 02:35:00,61.6,59.3,29.96,West,266,0.0,0.0,92,0.00,,,0.00,Wunderground v.1.15,2013-10-02 06:35:00,
2013-10-02 02:41:00,61.5,59.5,29.96,West,266,0.0,0.0,93,0.00,,,0.00,Wunderground v.1.15,2013-10-02 06:41:00,
2013-10-02 02:46:00,61.5,59.5,29.96,West,265,0.0,0.0,93,0.00,,,0.00,Wunderground v.1.15,2013-10-02 06:46:00,
2013-10-02 02:51:00,61.4,59.4,29.96,West,266,0.0,0.0,93,0.00,,,0.00,Wunderground v.1.15,2013-10-02 06:51:00,
2013-10-02 02:56:00,61.3,59.3,29.96,West,266,0.0,0.0,93,0.00,,,0.00,Wunderground v.1.15,2013-10-02 06:56:00,
2013-10-02 03:03:00,61.3,59.3,29.96,West,266,0.0,0.0,93,0.00,,,0.00,Wunderground v.1.15,2013-10-02 07:03:00,
2013-10-02 03:08:00,61.2,59.2,29.96,West,266,0.0,1.0,93,0.00,,,0.00,Wunderground v.1.15,2013-10-02 07:08:00,
2013-10-02 03:13:00,61.1,59.1,29.96,West,266,0.0,0.0,93,0.00,,,0.00,Wunderground v.1.15,2013-10-02 07:13:00,
2013-10-02 03:19:00,61.0,59.0,29.96,West,266,0.0,0.0,93,0.00,,,0.00,Wunderground v.1.15,2013-10-02 07:19:00,
2013-10-02 03:24:00,61.0,59.0,29.96,West,267,0.0,3.0,93,0.00,,,0.00,Wunderground v.1.15,2013-10-02 07:24:00,
2013-10-02 03:30:00,60.9,58.9,29.97,West,267,0.0,0.0,93,0.00,,,0.00,Wunderground v.1.15,2013-10-02 07:30:00,
2013-10-02 03:35:00,60.9,58.9,29.97,West,267,0.0,0.0,93,0.00,,,0.00,Wunderground v.1.15,2013-10-02 07:35:00,
2013-10-02 03:40:00,60.8,58.8,29.97,West,267,0.0,3.0,93,0.00,,,0.00,Wunderground v.1.15,2013-10-02 07:40:00,
2013-10-02 03:45:00,60.8,59.1,29.97,West,267,0.0,3.0,94,0.00,,,0.00,Wunderground v.1.15,2013-10-02 07:45:00,
2013-10-02 03:51:00,60.7,59.0,29.97,West,267,0.0,0.0,94,0.00,,,0.00,Wunderground v.1.15,2013-10-02 07:51:00,
2013-10-02 03:56:00,60.7,59.0,29.97,West,267,0.0,2.0,94,0.00,,,0.00,Wunderground v.1.15,2013-10-02 07:56:00,
2013-10-02 04:03:00,60.6,58.9,29.98,West,267,0.0,0.0,94,0.00,,,0.00,Wunderground v.1.15,2013-10-02 08:03:00,
2013-10-02 04:08:00,60.5,58.8,29.98,West,267,0.0,0.0,94,0.00,,,0.00,Wunderground v.1.15,2013-10-02 08:08:00,
2013-10-02 04:13:00,60.5,58.8,29.98,West,267,0.0,1.0,94,0.00,,,0.00,Wunderground v.1.15,2013-10-02 08:13:00,
2013-10-02 04:19:00,60.4,58.7,29.98,West,267,0.0,0.0,94,0.00,,,0.00,Wunderground v.1.15,2013-10-02 08:19:00,
2013-10-02 04:24:00,60.3,58.6,29.98,West,267,0.0,1.0,94,0.00,,,0.00,Wunderground v.1.15,2013-10-02 08:24:00,
2013-10-02 04:29:00,60.2,58.5,29.98,West,267,0.0,0.0,94,0.00,,,0.00,Wunderground v.1.15,2013-10-02 08:29:00,
2013-10-02 04:35:00,60.0,58.3,29.98,West,267,0.0,0.0,94,0.00,,,0.00,Wunderground v.1.15,2013-10-02 08:35:00,
2013-10-02 04:40:00,59.8,58.1,29.98,West,267,0.0,0.0,94,0.00,,,0.00,Wunderground v.1.15,2013-10-02 08:40:00,
2013-10-02 04:45:00,59.7,58.0,29.99,West,267,0.0,0.0,94,0.00,,,0.00,Wunderground v.1.15,2013-10-02 08:45:00,
2013-10-02 04:51:00,59.5,57.8,29.99,West,267,0.0,0.0,94,0.00,,,0.00,Wunderground v.1.15,2013-10-02 08:51:00,
2013-10-02 04:56:00,59.3,57.6,29.99,West,267,0.0,0.0,94,0.00,,,0.00,Wunderground v.1.15,2013-10-02 08:56:00,
2013-10-02 05:02:00,59.0,57.3,29.99,West,267,0.0,3.0,94,0.00,,,0.00,Wunderground v.1.15,2013-10-02 09:02:00,
2013-10-02 05:08:00,59.0,57.3,29.99,West,267,0.0,3.0,94,0.00,,,0.00,Wunderground v.1.15,2013-10-02 09:08:00,
2013-10-02 05:13:00,59.0,57.3,30.00,West,267,0.0,0.0,94,0.00,,,0.00,Wunderground v.1.15,2013-10-02 09:13:00,
2013-10-02 05:19:00,59.0,57.3,30.00,West,267,0.0,0.0,94,0.00,,,0.00,Wunderground v.1.15,2013-10-02 09:19:00,
2013-10-02 05:24:00,59.0,57.3,30.00,West,267,0.0,0.0,94,0.00,,,0.00,Wunderground v.1.15,2013-10-02 09:24:00,
2013-10-02 05:29:00,58.7,57.0,30.00,West,267,0.0,0.0,94,0.00,,,0.00,Wunderground v.1.15,2013-10-02 09:29:00,
2013-10-02 05:34:00,58.4,56.7,30.00,West,267,0.0,0.0,94,0.00,,,0.00,Wunderground v.1.15,2013-10-02 09:34:00,
2013-10-02 05:40:00,58.2,56.5,30.01,West,267,0.0,0.0,94,0.00,,,0.00,Wunderground v.1.15,2013-10-02 09:40:00,
2013-10-02 05:45:00,58.0,56.3,30.01,West,267,0.0,0.0,94,0.00,,,0.00,Wunderground v.1.15,2013-10-02 09:45:00,
2013-10-02 05:51:00,57.9,56.2,30.01,West,267,0.0,0.0,94,0.00,,,0.00,Wunderground v.1.15,2013-10-02 09:51:00,
2013-10-02 05:56:00,57.8,56.1,30.01,West,267,0.0,0.0,94,0.00,,,0.00,Wunderground v.1.15,2013-10-02 09:56:00,
2013-10-02 06:02:00,57.7,56.0,30.01,West,267,0.0,0.0,94,0.00,,,0.00,Wunderground v.1.15,2013-10-02 10:02:00,
2013-10-02 06:09:00,57.4,55.7,30.02,West,267,0.0,0.0,94,0.00,,,0.00,Wunderground v.1.15,2013-10-02 10:09:00,
2013-10-02 06:14:00,57.2,55.5,30.02,West,267,0.0,0.0,94,0.00,,,0.00,Wunderground v.1.15,2013-10-02 10:14:00,
2013-10-02 06:19:00,57.0,55.3,30.02,West,267,0.0,0.0,94,0.00,,,0.00,Wunderground v.1.15,2013-10-02 10:19:00,
2013-10-02 06:25:00,57.0,55.6,30.02,West,267,0.0,0.0,95,0.00,,,0.00,Wunderground v.1.15,2013-10-02 10:25:00,
2013-10-02 06:30:00,56.8,55.1,30.02,West,267,0.0,0.0,94,0.00,,,0.00,Wunderground v.1.15,2013-10-02 10:30:00,
2013-10-02 06:35:00,56.6,54.9,30.02,West,267,0.0,0.0,94,0.00,,,0.00,Wunderground v.1.15,2013-10-02 10:35:00,
2013-10-02 06:40:00,56.5,54.8,30.02,West,267,0.0,0.0,94,0.00,,,0.00,Wunderground v.1.15,2013-10-02 10:40:00,
2013-10-02 06:45:00,56.3,54.6,30.03,West,267,0.0,0.0,94,0.00,,,0.00,Wunderground v.1.15,2013-10-02 10:45:00,
2013-10-02 06:51:00,56.1,54.4,30.03,West,267,0.0,0.0,94,0.00,,,0.00,Wunderground v.1.15,2013-10-02 10:51:00,
2013-10-02 06:56:00,56.0,54.6,30.03,West,267,0.0,0.0,95,0.00,,,0.00,Wunderground v.1.15,2013-10-02 10:56:00,
2013-10-02 07:02:00,55.9,54.2,30.03,West,267,0.0,0.0,94,0.00,,,0.00,Wunderground v.1.15,2013-10-02 11:02:00,
2013-10-02 07:08:00,55.8,54.4,30.03,West,267,0.0,0.0,95,0.00,,,0.00,Wunderground v.1.15,2013-10-02 11:08:00,
2013-10-02 07:14:00,55.6,54.2,30.04,West,267,0.0,0.0,95,0.00,,,0.00,Wunderground v.1.15,2013-10-02 11:14:00,
2013-10-02 07:20:00,55.4,53.7,30.04,West,267,0.0,0.0,94,0.00,,,0.00,Wunderground v.1.15,2013-10-02 11:20:00,
2013-10-02 07:26:00,55.1,53.4,30.04,West,267,0.0,0.0,94,0.00,,,0.00,Wunderground v.1.15,2013-10-02 11:26:00,
2013-10-02 07:31:00,54.9,53.2,30.04,West,267,0.0,0.0,94,0.00,,,0.00,Wunderground v.1.15,2013-10-02 11:31:00,
2013-10-02 07:36:00,54.6,52.9,30.04,West,267,0.0,0.0,94,0.00,,,0.00,Wunderground v.1.15,2013-10-02 11:36:00,
2013-10-02 07:43:00,54.4,53.0,30.04,West,267,0.0,0.0,95,0.00,,,0.00,Wunderground v.1.15,2013-10-02 11:43:00,
2013-10-02 07:48:00,54.2,52.8,30.04,West,267,0.0,0.0,95,0.00,,,0.00,Wunderground v.1.15,2013-10-02 11:48:00,
2013-10-02 07:53:00,54.0,52.3,30.05,West,267,0.0,0.0,94,0.00,,,0.00,Wunderground v.1.15,2013-10-02 11:53:00,
2013-10-02 07:59:00,53.9,52.5,30.05,West,267,0.0,0.0,95,0.00,,,0.00,Wunderground v.1.15,2013-10-02 11:59:00,
2013-10-02 08:04:00,53.8,52.4,30.05,West,267,0.0,0.0,95,0.00,,,0.00,Wunderground v.1.15,2013-10-02 12:04:00,
2013-10-02 08:10:00,53.9,52.5,30.05,West,267,0.0,0.0,95,0.00,,,0.00,Wunderground v.1.15,2013-10-02 12:10:00,
2013-10-02 08:15:00,54.0,52.6,30.05,West,267,0.0,0.0,95,0.00,,,0.00,Wunderground v.1.15,2013-10-02 12:15:00,
2013-10-02 08:20:00,54.2,52.8,30.05,West,267,0.0,0.0,95,0.00,,,0.00,Wunderground v.1.15,2013-10-02 12:20:00,
2013-10-02 08:25:00,54.6,53.5,30.05,West,267,0.0,0.0,96,0.00,,,0.00,Wunderground v.1.15,2013-10-02 12:25:00,
2013-10-02 08:31:00,55.3,54.2,30.06,West,267,0.0,0.0,96,0.00,,,0.00,Wunderground v.1.15,2013-10-02 12:31:00,
2013-10-02 08:36:00,56.2,55.1,30.06,West,267,0.0,0.0,96,0.00,,,0.00,Wunderground v.1.15,2013-10-02 12:36:00,
2013-10-02 08:42:00,57.2,56.1,30.06,West,267,0.0,0.0,96,0.00,,,0.00,Wunderground v.1.15,2013-10-02 12:42:00,
2013-10-02 08:48:00,57.9,56.8,30.06,West,267,0.0,0.0,96,0.00,,,0.00,Wunderground v.1.15,2013-10-02 12:48:00,
2013-10-02 08:53:00,58.3,57.2,30.07,West,267,0.0,0.0,96,0.00,,,0.00,Wunderground v.1.15,2013-10-02 12:53:00,
2013-10-02 08:59:00,58.8,57.7,30.07,West,267,0.0,0.0,96,0.00,,,0.00,Wunderground v.1.15,2013-10-02 12:59:00,
2013-10-02 09:04:00,59.0,57.9,30.07,West,267,0.0,3.0,96,0.00,,,0.00,Wunderground v.1.15,2013-10-02 13:04:00,
2013-10-02 09:09:00,59.0,57.9,30.07,West,267,0.0,0.0,96,0.00,,,0.00,Wunderground v.1.15,2013-10-02 13:09:00,
2013-10-02 09:15:00,59.0,57.9,30.07,West,267,0.0,0.0,96,0.00,,,0.01,Wunderground v.1.15,2013-10-02 13:15:00,
2013-10-02 09:20:00,59.3,58.2,30.08,West,267,0.0,0.0,96,0.00,,,0.01,Wunderground v.1.15,2013-10-02 13:20:00,
2013-10-02 09:25:00,59.5,58.1,30.08,West,267,0.0,0.0,95,0.00,,,0.01,Wunderground v.1.15,2013-10-02 13:25:00,
2013-10-02 09:31:00,59.7,58.3,30.08,West,267,0.0,0.0,95,0.00,,,0.01,Wunderground v.1.15,2013-10-02 13:31:00,
2013-10-02 09:36:00,60.0,58.3,30.08,West,267,0.0,1.0,94,0.00,,,0.01,Wunderground v.1.15,2013-10-02 13:36:00,
2013-10-02 09:42:00,60.5,58.2,30.08,West,267,0.0,1.0,92,0.00,,,0.01,Wunderground v.1.15,2013-10-02 13:42:00,
2013-10-02 09:48:00,61.2,58.2,30.08,West,267,1.0,1.0,90,0.00,,,0.01,Wunderground v.1.15,2013-10-02 13:48:00,
2013-10-02 09:53:00,61.7,57.8,30.09,West,267,1.0,1.0,87,0.00,,,0.01,Wunderground v.1.15,2013-10-02 13:53:00,
2013-10-02 09:59:00,62.4,58.2,30.09,West,267,0.0,1.0,86,0.00,,,0.01,Wunderground v.1.15,2013-10-02 13:59:00,
2013-10-02 10:04:00,63.0,57.8,30.09,West,271,1.0,4.0,83,0.00,,,0.01,Wunderground v.1.15,2013-10-02 14:04:00,
2013-10-02 10:09:00,63.7,57.4,30.09,West,279,1.0,3.0,80,0.00,,,0.01,Wunderground v.1.15,2013-10-02 14:09:00,
2013-10-02 10:14:00,64.3,56.9,30.09,WNW,298,1.0,3.0,77,0.00,,,0.01,Wunderground v.1.15,2013-10-02 14:14:00,
2013-10-02 10:20:00,64.9,56.4,30.09,WNW,303,1.0,2.0,74,0.00,,,0.01,Wunderground v.1.15,2013-10-02 14:20:00,
2013-10-02 10:25:00,65.3,56.4,30.09,NNW,333,1.0,2.0,73,0.00,,,0.01,Wunderground v.1.15,2013-10-02 14:25:00,
2013-10-02 10:31:00,65.6,55.9,30.10,North,355,1.0,4.0,71,0.00,,,0.01,Wunderground v.1.15,2013-10-02 14:31:00,
2013-10-02 10:36:00,65.7,54.8,30.10,NNE,22,2.0,4.0,68,0.00,,,0.01,Wunderground v.1.15,2013-10-02 14:36:00,
2013-10-02 10:43:00,66.1,55.6,30.10,NNE,22,2.0,2.0,69,0.00,,,0.01,Wunderground v.1.15,2013-10-02 14:43:00,
2013-10-02 10:48:00,66.4,55.1,30.10,NE,34,2.0,4.0,67,0.00,,,0.01,Wunderground v.1.15,2013-10-02 14:48:00,
2013-10-02 10:53:00,66.8,54.7,30.10,NE,34,2.0,6.0,65,0.00,,,0.01,Wunderground v.1.15,2013-10-02 14:53:00,
2013-10-02 10:59:00,67.2,55.0,30.09,NE,36,1.0,1.0,65,0.00,,,0.01,Wunderground v.1.15,2013-10-02 14:59:00,
2013-10-02 11:04:00,67.5,55.3,30.09,NNE,27,1.0,4.0,65,0.00,,,0.01,Wunderground v.1.15,2013-10-02 15:04:00,
2013-10-02 11:10:00,67.9,54.0,30.09,NNE,26,1.0,2.0,61,0.00,,,0.01,Wunderground v.1.15,2013-10-02 15:10:00,
2013-10-02 11:15:00,68.3,54.8,30.09,North,360,0.0,7.0,62,0.00,,,0.01,Wunderground v.1.15,2013-10-02 15:15:00,
2013-10-02 11:21:00,68.5,54.1,30.09,North,10,1.0,1.0,60,0.00,,,0.01,Wunderground v.1.15,2013-10-02 15:21:00,
2013-10-02 11:26:00,68.8,53.9,30.09,NNE,21,1.0,6.0,59,0.00,,,0.01,Wunderground v.1.15,2013-10-02 15:26:00,
2013-10-02 11:32:00,68.8,54.8,30.09,NNE,22,1.0,2.0,61,0.00,,,0.01,Wunderground v.1.15,2013-10-02 15:32:00,
2013-10-02 11:38:00,69.1,55.1,30.09,NNE,22,1.0,2.0,61,0.00,,,0.01,Wunderground v.1.15,2013-10-02 15:38:00,
2013-10-02 11:43:00,69.8,55.3,30.09,NNE,22,0.0,0.0,60,0.00,,,0.01,Wunderground v.1.15,2013-10-02 15:43:00,
2013-10-02 11:47:00,70.3,54.8,30.09,NNE,22,0.0,2.0,58,0.00,,,0.01,Wunderground v.1.15,2013-10-02 15:47:00,
2013-10-02 11:52:00,70.5,52.5,30.09,NNE,21,0.0,2.0,53,0.00,,,0.01,Wunderground v.1.15,2013-10-02 15:52:00,
2013-10-02 11:59:00,70.5,53.1,30.09,NNE,28,1.0,5.0,54,0.00,,,0.01,Wunderground v.1.15,2013-10-02 15:59:00,
2013-10-02 12:04:00,70.6,51.1,30.09,NNE,29,1.0,2.0,50,0.00,,,0.01,Wunderground v.1.15,2013-10-02 16:04:00,
2013-10-02 12:09:00,71.1,52.6,30.09,NNE,29,1.0,1.0,52,0.00,,,0.01,Wunderground v.1.15,2013-10-02 16:09:00,
2013-10-02 12:15:00,71.3,51.1,30.09,North,9,1.0,2.0,49,0.00,,,0.01,Wunderground v.1.15,2013-10-02 16:15:00,
2013-10-02 12:20:00,71.6,52.5,30.09,North,9,1.0,1.0,51,0.00,,,0.01,Wunderground v.1.15,2013-10-02 16:20:00,
2013-10-02 12:25:00,71.8,53.2,30.09,North,9,0.0,4.0,52,0.00,,,0.01,Wunderground v.1.15,2013-10-02 16:25:00,
2013-10-02 12:31:00,71.7,49.2,30.09,NNE,24,2.0,4.0,45,0.00,,,0.01,Wunderground v.1.15,2013-10-02 16:31:00,
2013-10-02 12:38:00,72.0,49.5,30.10,NNE,21,1.0,4.0,45,0.00,,,0.01,Wunderground v.1.15,2013-10-02 16:38:00,
2013-10-02 12:43:00,72.4,51.0,30.10,NNE,17,0.0,3.0,47,0.00,,,0.01,Wunderground v.1.15,2013-10-02 16:43:00,
2013-10-02 12:50:00,72.6,48.8,30.09,NNE,15,1.0,1.0,43,0.00,,,0.01,Wunderground v.1.15,2013-10-02 16:50:00,
2013-10-02 12:55:00,73.0,49.2,30.09,NNE,15,1.0,1.0,43,0.00,,,0.01,Wunderground v.1.15,2013-10-02 16:55:00,
2013-10-02 13:00:00,73.5,49.6,30.09,NNE,16,0.0,4.0,43,0.00,,,0.01,Wunderground v.1.15,2013-10-02 17:00:00,
2013-10-02 13:06:00,73.6,50.3,30.09,NNE,28,1.0,4.0,44,0.00,,,0.01,Wunderground v.1.15,2013-10-02 17:06:00,
2013-10-02 13:11:00,73.7,49.2,30.09,NNE,25,1.0,1.0,42,0.00,,,0.01,Wunderground v.1.15,2013-10-02 17:11:00,
2013-10-02 13:16:00,73.8,49.9,30.09,NNE,24,1.0,2.0,43,0.00,,,0.01,Wunderground v.1.15,2013-10-02 17:16:00,
2013-10-02 13:22:00,73.8,48.6,30.09,NW,323,1.0,3.0,41,0.00,,,0.01,Wunderground v.1.15,2013-10-02 17:22:00,
2013-10-02 13:28:00,73.9,48.1,30.08,NW,323,1.0,3.0,40,0.00,,,0.01,Wunderground v.1.15,2013-10-02 17:28:00,
2013-10-02 13:33:00,74.1,46.9,30.08,NNW,344,1.0,5.0,38,0.00,,,0.01,Wunderground v.1.15,2013-10-02 17:33:00,
2013-10-02 13:39:00,74.4,47.1,30.08,NNW,338,1.0,4.0,38,0.00,,,0.01,Wunderground v.1.15,2013-10-02 17:39:00,
2013-10-02 13:44:00,74.3,45.6,30.08,NW,326,2.0,4.0,36,0.00,,,0.01,Wunderground v.1.15,2013-10-02 17:44:00,
2013-10-02 13:51:00,74.3,48.4,30.08,NW,318,2.0,2.0,40,0.00,,,0.01,Wunderground v.1.15,2013-10-02 17:51:00,
2013-10-02 13:56:00,74.4,47.1,30.08,NW,318,1.0,3.0,38,0.00,,,0.01,Wunderground v.1.15,2013-10-02 17:56:00,
2013-10-02 14:01:00,74.8,48.9,30.08,NW,318,1.0,1.0,40,0.00,,,0.01,Wunderground v.1.15,2013-10-02 18:01:00,
2013-10-02 14:06:00,75.2,45.7,30.08,NW,318,0.0,2.0,35,0.00,,,0.01,Wunderground v.1.15,2013-10-02 18:06:00,
2013-10-02 14:12:00,75.4,46.6,30.08,NW,320,0.0,1.0,36,0.00,,,0.01,Wunderground v.1.15,2013-10-02 18:12:00,
2013-10-02 14:18:00,75.3,45.7,30.08,WNW,303,2.0,4.0,35,0.00,,,0.01,Wunderground v.1.15,2013-10-02 18:18:00,
2013-10-02 14:24:00,75.1,45.6,30.07,NNW,340,3.0,4.0,35,0.00,,,0.01,Wunderground v.1.15,2013-10-02 18:24:00,
2013-10-02 14:30:00,75.1,46.3,30.07,WNW,292,3.0,3.0,36,0.00,,,0.01,Wunderground v.1.15,2013-10-02 18:30:00,
2013-10-02 14:35:00,75.1,47.8,30.07,NNW,344,2.0,4.0,38,0.00,,,0.01,Wunderground v.1.15,2013-10-02 18:35:00,
2013-10-02 14:40:00,75.2,46.4,30.07,WNW,303,2.0,5.0,36,0.00,,,0.01,Wunderground v.1.15,2013-10-02 18:40:00,
2013-10-02 14:46:00,75.5,46.7,30.07,WNW,303,1.0,5.0,36,0.00,,,0.01,Wunderground v.1.15,2013-10-02 18:46:00,
2013-10-02 14:53:00,75.9,46.3,30.07,NW,309,1.0,5.0,35,0.00,,,0.01,Wunderground v.1.15,2013-10-02 18:53:00,
2013-10-02 14:58:00,75.8,46.2,30.07,WNW,284,2.0,6.0,35,0.00,,,0.01,Wunderground v.1.15,2013-10-02 18:58:00,
2013-10-02 15:03:00,76.1,46.5,30.06,WNW,296,2.0,2.0,35,0.00,,,0.01,Wunderground v.1.15,2013-10-02 19:03:00,
2013-10-02 15:09:00,76.5,46.8,30.06,WNW,297,1.0,1.0,35,0.00,,,0.01,Wunderground v.1.15,2013-10-02 19:09:00,
2013-10-02 15:14:00,77.0,45.7,30.06,WNW,297,0.0,1.0,33,0.00,,,0.01,Wunderground v.1.15,2013-10-02 19:14:00,
2013-10-02 15:20:00,77.3,48.3,30.06,WNW,298,0.0,0.0,36,0.00,,,0.01,Wunderground v.1.15,2013-10-02 19:20:00,
2013-10-02 15:25:00,77.1,46.6,30.06,WNW,292,2.0,4.0,34,0.00,,,0.01,Wunderground v.1.15,2013-10-02 19:25:00,
2013-10-02 15:31:00,76.9,46.4,30.06,WNW,290,2.0,2.0,34,0.00,,,0.01,Wunderground v.1.15,2013-10-02 19:31:00,
2013-10-02 15:36:00,76.9,47.2,30.06,NW,312,1.0,4.0,35,0.00,,,0.01,Wunderground v.1.15,2013-10-02 19:36:00,
2013-10-02 15:41:00,76.9,46.4,30.06,NW,312,1.0,3.0,34,0.00,,,0.01,Wunderground v.1.15,2013-10-02 19:41:00,
2013-10-02 15:46:00,76.6,45.3,30.06,WNW,303,1.0,5.0,33,0.00,,,0.01,Wunderground v.1.15,2013-10-02 19:46:00,
2013-10-02 15:53:00,76.9,45.6,30.06,WNW,291,1.0,5.0,33,0.00,,,0.01,Wunderground v.1.15,2013-10-02 19:53:00,
2013-10-02 15:58:00,76.6,46.1,30.06,WNW,291,2.0,5.0,34,0.00,,,0.01,Wunderground v.1.15,2013-10-02 19:58:00,
2013-10-02 16:04:00,76.6,44.5,30.06,WNW,294,1.0,4.0,32,0.00,,,0.01,Wunderground v.1.15,2013-10-02 20:04:00,
2013-10-02 16:10:00,77.0,46.5,30.06,WNW,294,0.0,0.0,34,0.00,,,0.01,Wunderground v.1.15,2013-10-02 20:10:00,
2013-10-02 16:15:00,77.4,46.0,30.06,WNW,288,0.0,1.0,33,0.00,,,0.01,Wunderground v.1.15,2013-10-02 20:15:00,
2013-10-02 16:21:00,77.1,46.6,30.06,WNW,289,1.0,3.0,34,0.00,,,0.01,Wunderground v.1.15,2013-10-02 20:21:00,
2013-10-02 16:26:00,76.8,44.7,30.06,WNW,294,1.0,4.0,32,0.00,,,0.01,Wunderground v.1.15,2013-10-02 20:26:00,
2013-10-02 16:31:00,76.4,45.2,30.05,WNW,294,1.0,1.0,33,0.00,,,0.01,Wunderground v.1.15,2013-10-02 20:31:00,
2013-10-02 16:36:00,76.4,45.2,30.05,WNW,294,0.0,1.0,33,0.00,,,0.01,Wunderground v.1.15,2013-10-02 20:36:00,
2013-10-02 16:43:00,76.7,46.2,30.05,WNW,294,0.0,3.0,34,0.00,,,0.01,Wunderground v.1.15,2013-10-02 20:43:00,
2013-10-02 16:48:00,76.7,44.6,30.05,WNW,296,1.0,3.0,32,0.00,,,0.01,Wunderground v.1.15,2013-10-02 20:48:00,
2013-10-02 16:53:00,76.9,46.4,30.05,WNW,295,0.0,2.0,34,0.00,,,0.01,Wunderground v.1.15,2013-10-02 20:53:00,
2013-10-02 16:59:00,76.5,46.0,30.05,WNW,296,0.0,0.0,34,0.00,,,0.01,Wunderground v.1.15,2013-10-02 20:59:00,
2013-10-02 17:04:00,76.3,45.1,30.05,WNW,296,0.0,0.0,33,0.00,,,0.01,Wunderground v.1.15,2013-10-02 21:04:00,
2013-10-02 17:10:00,76.5,46.0,30.05,WNW,298,0.0,0.0,34,0.00,,,0.01,Wunderground v.1.15,2013-10-02 21:10:00,
2013-10-02 17:15:00,76.6,45.3,30.05,WNW,298,0.0,1.0,33,0.00,,,0.01,Wunderground v.1.15,2013-10-02 21:15:00,
2013-10-02 17:20:00,76.7,46.2,30.05,WNW,300,1.0,1.0,34,0.00,,,0.01,Wunderground v.1.15,2013-10-02 21:20:00,
2013-10-02 17:26:00,76.7,44.6,30.05,WNW,300,1.0,3.0,32,0.00,,,0.01,Wunderground v.1.15,2013-10-02 21:26:00,
2013-10-02 17:31:00,76.8,46.3,30.05,WNW,302,1.0,2.0,34,0.00,,,0.01,Wunderground v.1.15,2013-10-02 21:31:00,
2013-10-02 17:37:00,76.8,44.7,30.05,WNW,302,1.0,2.0,32,0.00,,,0.01,Wunderground v.1.15,2013-10-02 21:37:00,
2013-10-02 17:43:00,77.3,45.9,30.04,WNW,302,0.0,0.0,33,0.00,,,0.01,Wunderground v.1.15,2013-10-02 21:43:00,
2013-10-02 17:48:00,77.5,46.9,30.05,WNW,302,0.0,2.0,34,0.00,,,0.01,Wunderground v.1.15,2013-10-02 21:48:00,
2013-10-02 17:53:00,77.7,47.1,30.05,WNW,302,0.0,1.0,34,0.00,,,0.01,Wunderground v.1.15,2013-10-02 21:53:00,
2013-10-02 17:59:00,77.9,47.3,30.05,WNW,302,0.0,0.0,34,0.00,,,0.01,Wunderground v.1.15,2013-10-02 21:59:00,
2013-10-02 18:04:00,77.9,48.0,30.05,WNW,302,0.0,0.0,35,0.00,,,0.01,Wunderground v.1.15,2013-10-02 22:04:00,
2013-10-02 18:10:00,77.6,48.5,30.05,WNW,302,0.0,0.0,36,0.00,,,0.01,Wunderground v.1.15,2013-10-02 22:10:00,
2013-10-02 18:15:00,77.4,49.1,30.05,WNW,302,0.0,0.0,37,0.00,,,0.01,Wunderground v.1.15,2013-10-02 22:15:00,
2013-10-02 18:20:00,77.0,49.4,30.05,WNW,302,0.0,0.0,38,0.00,,,0.01,Wunderground v.1.15,2013-10-02 22:20:00,
2013-10-02 18:26:00,76.4,51.6,30.05,WNW,302,0.0,0.0,42,0.00,,,0.01,Wunderground v.1.15,2013-10-02 22:26:00,
2013-10-02 18:33:00,75.5,50.8,30.05,WNW,302,0.0,0.0,42,0.00,,,0.01,Wunderground v.1.15,2013-10-02 22:33:00,
2013-10-02 18:38:00,74.5,52.4,30.05,WNW,302,0.0,0.0,46,0.00,,,0.01,Wunderground v.1.15,2013-10-02 22:38:00,
2013-10-02 18:43:00,73.4,51.4,30.05,WNW,302,0.0,0.0,46,0.00,,,0.01,Wunderground v.1.15,2013-10-02 22:43:00,
2013-10-02 18:49:00,72.3,51.5,30.05,WNW,302,0.0,0.0,48,0.00,,,0.01,Wunderground v.1.15,2013-10-02 22:49:00,
2013-10-02 18:54:00,71.3,52.2,30.05,WNW,302,0.0,0.0,51,0.00,,,0.01,Wunderground v.1.15,2013-10-02 22:54:00,
2013-10-02 19:00:00,70.2,51.7,30.05,WNW,302,0.0,0.0,52,0.00,,,0.01,Wunderground v.1.15,2013-10-02 23:00:00,
2013-10-02 19:05:00,69.3,51.4,30.05,WNW,302,0.0,0.0,53,0.00,,,0.01,Wunderground v.1.15,2013-10-02 23:05:00,
2013-10-02 19:10:00,68.4,51.6,30.05,WNW,302,0.0,0.0,55,0.00,,,0.01,Wunderground v.1.15,2013-10-02 23:10:00,
2013-10-02 19:15:00,67.4,51.2,30.05,WNW,302,0.0,0.0,56,0.00,,,0.01,Wunderground v.1.15,2013-10-02 23:15:00,
2013-10-02 19:21:00,66.2,50.5,30.05,WNW,302,0.0,0.0,57,0.00,,,0.01,Wunderground v.1.15,2013-10-02 23:21:00,
2013-10-02 19:26:00,65.3,50.6,30.06,WNW,302,0.0,0.0,59,0.00,,,0.01,Wunderground v.1.15,2013-10-02 23:26:00,
2013-10-02 19:31:00,64.3,51.0,30.05,WNW,302,0.0,0.0,62,0.00,,,0.01,Wunderground v.1.15,2013-10-02 23:31:00,
2013-10-02 19:37:00,63.5,50.7,30.05,WNW,302,0.0,0.0,63,0.00,,,0.01,Wunderground v.1.15,2013-10-02 23:37:00,
2013-10-02 19:43:00,62.6,50.7,30.05,WNW,302,0.0,0.0,65,0.00,,,0.01,Wunderground v.1.15,2013-10-02 23:43:00,
2013-10-02 19:48:00,61.8,50.7,30.05,WNW,302,0.0,0.0,67,0.00,,,0.01,Wunderground v.1.15,2013-10-02 23:48:00,
2013-10-02 19:53:00,61.1,51.2,30.05,WNW,302,0.0,0.0,70,0.00,,,0.01,Wunderground v.1.15,2013-10-02 23:53:00,
2013-10-02 19:59:00,60.3,51.2,30.05,WNW,302,0.0,0.0,72,0.00,,,0.01,Wunderground v.1.15,2013-10-02 23:59:00,
2013-10-02 20:04:00,59.6,50.9,30.06,WNW,302,0.0,0.0,73,0.00,,,0.01,Wunderground v.1.15,2013-10-03 00:04:00,
2013-10-02 20:10:00,59.0,51.4,30.06,WNW,302,0.0,0.0,76,0.00,,,0.01,Wunderground v.1.15,2013-10-03 00:10:00,
2013-10-02 20:15:00,58.5,51.7,30.06,WNW,302,0.0,0.0,78,0.00,,,0.01,Wunderground v.1.15,2013-10-03 00:15:00,
2013-10-02 20:21:00,57.9,51.4,30.05,WNW,302,0.0,0.0,79,0.00,,,0.01,Wunderground v.1.15,2013-10-03 00:21:00,
2013-10-02 20:27:00,57.4,51.3,30.05,WNW,302,0.0,0.0,80,0.00,,,0.01,Wunderground v.1.15,2013-10-03 00:27:00,
2013-10-02 20:33:00,56.9,51.5,30.06,WNW,302,0.0,0.0,82,0.00,,,0.01,Wunderground v.1.15,2013-10-03 00:33:00,
2013-10-02 20:38:00,56.5,51.4,30.06,WNW,302,0.0,0.0,83,0.00,,,0.01,Wunderground v.1.15,2013-10-03 00:38:00,
2013-10-02 20:43:00,56.0,51.2,30.06,WNW,302,0.0,1.0,84,0.00,,,0.01,Wunderground v.1.15,2013-10-03 00:43:00,
2013-10-02 20:49:00,55.5,50.7,30.06,WNW,302,0.0,0.0,84,0.00,,,0.01,Wunderground v.1.15,2013-10-03 00:49:00,
2013-10-02 20:54:00,55.2,50.4,30.06,WNW,302,0.0,0.0,84,0.00,,,0.01,Wunderground v.1.15,2013-10-03 00:54:00,
2013-10-02 21:00:00,54.8,50.4,30.07,WNW,302,0.0,0.0,85,0.00,,,0.01,Wunderground v.1.15,2013-10-03 01:00:00,
2013-10-02 21:06:00,54.5,50.4,30.07,WNW,302,0.0,0.0,86,0.00,,,0.01,Wunderground v.1.15,2013-10-03 01:06:00,
2013-10-02 21:12:00,54.1,50.3,30.07,WNW,302,0.0,0.0,87,0.00,,,0.01,Wunderground v.1.15,2013-10-03 01:12:00,
2013-10-02 21:19:00,53.8,50.0,30.07,WNW,302,0.0,0.0,87,0.00,,,0.01,Wunderground v.1.15,2013-10-03 01:19:00,
2013-10-02 21:24:00,53.5,49.7,30.07,WNW,302,0.0,0.0,87,0.00,,,0.01,Wunderground v.1.15,2013-10-03 01:24:00,
2013-10-02 21:29:00,53.2,49.7,30.07,WNW,302,0.0,0.0,88,0.00,,,0.01,Wunderground v.1.15,2013-10-03 01:29:00,
2013-10-02 21:34:00,53.0,49.5,30.07,WNW,302,0.0,0.0,88,0.00,,,0.01,Wunderground v.1.15,2013-10-03 01:34:00,
2013-10-02 21:40:00,52.6,49.1,30.07,WNW,302,0.0,0.0,88,0.00,,,0.01,Wunderground v.1.15,2013-10-03 01:40:00,
2013-10-02 21:45:00,52.3,48.9,30.07,WNW,302,0.0,0.0,88,0.00,,,0.01,Wunderground v.1.15,2013-10-03 01:45:00,
2013-10-02 21:51:00,52.1,49.0,30.07,WNW,302,0.0,0.0,89,0.00,,,0.01,Wunderground v.1.15,2013-10-03 01:51:00,
2013-10-02 21:56:00,51.9,48.8,30.07,WNW,302,0.0,0.0,89,0.00,,,0.01,Wunderground v.1.15,2013-10-03 01:56:00,
2013-10-02 22:01:00,51.7,48.6,30.07,WNW,302,0.0,0.0,89,0.00,,,0.01,Wunderground v.1.15,2013-10-03 02:01:00,
2013-10-02 22:07:00,51.5,48.7,30.07,WNW,302,0.0,0.0,90,0.00,,,0.01,Wunderground v.1.15,2013-10-03 02:07:00,
2013-10-02 22:13:00,51.3,48.5,30.07,WNW,302,0.0,0.0,90,0.00,,,0.01,Wunderground v.1.15,2013-10-03 02:13:00,
2013-10-02 22:18:00,51.2,48.4,30.07,WNW,302,0.0,0.0,90,0.00,,,0.01,Wunderground v.1.15,2013-10-03 02:18:00,
2013-10-02 22:23:00,51.0,48.5,30.07,WNW,302,0.0,0.0,91,0.00,,,0.01,Wunderground v.1.15,2013-10-03 02:23:00,
2013-10-02 22:29:00,50.8,48.3,30.07,WNW,302,0.0,0.0,91,0.00,,,0.01,Wunderground v.1.15,2013-10-03 02:29:00,
2013-10-02 22:34:00,50.6,48.1,30.07,WNW,302,0.0,0.0,91,0.00,,,0.01,Wunderground v.1.15,2013-10-03 02:34:00,
2013-10-02 22:40:00,50.4,47.9,30.07,WNW,302,0.0,0.0,91,0.00,,,0.01,Wunderground v.1.15,2013-10-03 02:40:00,
2013-10-02 22:45:00,50.2,47.7,30.07,WNW,302,0.0,0.0,91,0.00,,,0.01,Wunderground v.1.15,2013-10-03 02:45:00,
2013-10-02 22:51:00,50.1,47.6,30.07,WNW,302,0.0,0.0,91,0.00,,,0.01,Wunderground v.1.15,2013-10-03 02:51:00,
2013-10-02 22:56:00,50.2,48.0,30.07,WNW,302,0.0,0.0,92,0.00,,,0.01,Wunderground v.1.15,2013-10-03 02:56:00,
2013-10-02 23:03:00,50.1,47.9,30.07,WNW,302,0.0,0.0,92,0.00,,,0.01,Wunderground v.1.15,2013-10-03 03:03:00,
2013-10-02 23:08:00,49.9,47.4,30.07,WNW,302,0.0,0.0,91,0.00,,,0.01,Wunderground v.1.15,2013-10-03 03:08:00,
2013-10-02 23:13:00,49.7,47.2,30.07,WNW,302,0.0,0.0,91,0.00,,,0.01,Wunderground v.1.15,2013-10-03 03:13:00,
2013-10-02 23:19:00,49.6,47.4,30.07,WNW,302,0.0,0.0,92,0.00,,,0.01,Wunderground v.1.15,2013-10-03 03:19:00,
2013-10-02 23:24:00,49.5,47.3,30.07,WNW,302,0.0,0.0,92,0.00,,,0.01,Wunderground v.1.15,2013-10-03 03:24:00,
2013-10-02 23:30:00,49.5,47.3,30.07,WNW,302,0.0,0.0,92,0.00,,,0.01,Wunderground v.1.15,2013-10-03 03:30:00,
2013-10-02 23:35:00,49.4,47.2,30.07,WNW,302,0.0,0.0,92,0.00,,,0.01,Wunderground v.1.15,2013-10-03 03:35:00,
2013-10-02 23:41:00,49.6,47.7,30.07,WNW,302,0.0,0.0,93,0.00,,,0.01,Wunderground v.1.15,2013-10-03 03:41:00,
2013-10-02 23:46:00,49.6,47.7,30.07,WNW,302,0.0,0.0,93,0.00,,,0.01,Wunderground v.1.15,2013-10-03 03:46:00,
2013-10-02 23:52:00,49.4,47.5,30.07,WNW,302,0.0,0.0,93,0.00,,,0.01,Wunderground v.1.15,2013-10-03 03:52:00,
2013-10-02 23:58:00,49.2,47.0,30.07,WNW,302,0.0,0.0,92,0.00,,,0.01,Wunderground v.1.15,2013-10-03 03:58:00,